| time (UTC) | temp F | wind direction | speed MPH | gust MPH | rain 1hr in | rain 24hr in | rain mn in | humidity % | barometer mb |
| 20260901224518 | 74 | 214 | 6.0 | 11.0 | 0.00 | 0.02 | 0.00 | 31 | 1026.1 |
| 20260901223558 | 74 | 201 | 7.0 | 11.0 | 0.00 | 0.02 | 0.00 | 31 | 1026.2 |
| 20260901222518 | 74 | 227 | 6.0 | 11.0 | 0.00 | 0.02 | 0.00 | 30 | 1026.3 |
| 20260901221619 | 73 | 227 | 7.0 | 11.0 | 0.00 | 0.02 | 0.00 | 32 | 1026.5 |
| 20260901220518 | 73 | 240 | 3.0 | 7.0 | 0.00 | 0.02 | 0.00 | 29 | 1026.7 |
| 20260901215519 | 73 | 246 | 6.0 | 9.0 | 0.00 | 0.02 | 0.00 | 29 | 1026.8 |
| 20260901214545 | 73 | 295 | 5.0 | 7.0 | 0.00 | 0.02 | 0.00 | 28 | 1026.9 |
| 20260901213519 | 74 | 314 | 6.0 | 12.0 | 0.00 | 0.02 | 0.00 | 28 | 1027.0 |
| 20260901212536 | 73 | 292 | 6.0 | 10.0 | 0.00 | 0.02 | 0.00 | 28 | 1027.0 |
| 20260901211519 | 74 | 269 | 6.0 | 11.0 | 0.00 | 0.02 | 0.00 | 28 | 1026.9 |
| 20260901210520 | 74 | 314 | 5.0 | 10.0 | 0.00 | 0.02 | 0.00 | 27 | 1027.1 |
| 20260901205520 | 72 | 279 | 3.0 | 9.0 | 0.00 | 0.02 | 0.00 | 27 | 1027.2 |
| 20260901204519 | 72 | 329 | 2.0 | 5.0 | 0.00 | 0.02 | 0.00 | 28 | 1027.4 |
| 20260901203520 | 73 | 214 | 4.0 | 8.0 | 0.00 | 0.02 | 0.00 | 29 | 1027.5 |
| 20260901202518 | 73 | 268 | 7.0 | 11.0 | 0.00 | 0.02 | 0.00 | 29 | 1027.6 |
| 20260901201518 | 72 | 337 | 5.0 | 11.0 | 0.00 | 0.02 | 0.00 | 30 | 1027.7 |
| 20260901200521 | 72 | 30 | 4.0 | 9.0 | 0.00 | 0.02 | 0.00 | 30 | 1027.8 |
| 20260901195521 | 73 | 35 | 4.0 | 7.0 | 0.00 | 0.02 | 0.00 | 30 | 1028.0 |
| 20260901194518 | 73 | 25 | 5.0 | 10.0 | 0.00 | 0.02 | 0.00 | 32 | 1028.0 |
| 20260901193521 | 73 | 202 | 2.0 | 5.0 | 0.00 | 0.02 | 0.00 | 33 | 1028.0 |
| 20260901192519 | 72 | 218 | 7.0 | 13.0 | 0.00 | 0.02 | 0.00 | 33 | 1028.1 |
| 20260901191521 | 71 | 121 | 4.0 | 7.0 | 0.00 | 0.02 | 0.00 | 36 | 1028.4 |
| 20260901190518 | 71 | 186 | 7.0 | 13.0 | 0.00 | 0.02 | 0.00 | 37 | 1028.4 |
| 20260901185542 | 70 | 153 | 5.0 | 8.0 | 0.00 | 0.02 | 0.00 | 38 | 1028.6 |
| 20260901184522 | 69 | 197 | 3.0 | 6.0 | 0.00 | 0.02 | 0.00 | 39 | 1028.7 |
| 20260901183522 | 69 | 171 | 2.0 | 6.0 | 0.00 | 0.02 | 0.00 | 39 | 1028.8 |
| 20260901182516 | 68 | 63 | 3.0 | 5.0 | 0.00 | 0.02 | 0.00 | 42 | 1028.9 |
| 20260901181517 | 69 | 230 | 4.0 | 9.0 | 0.00 | 0.02 | 0.00 | 41 | 1028.9 |
| 20260901180543 | 68 | 179 | 2.0 | 7.0 | 0.00 | 0.02 | 0.00 | 41 | 1029.1 |
| 20260901175523 | 66 | 218 | 4.0 | 9.0 | 0.00 | 0.02 | 0.00 | 44 | 1029.0 |
| 20260901174517 | 66 | 220 | 6.0 | 10.0 | 0.00 | 0.02 | 0.00 | 45 | 1029.1 |
| 20260901173517 | 67 | 235 | 6.0 | 10.0 | 0.00 | 0.02 | 0.00 | 46 | 1029.1 |
| 20260901172518 | 69 | 237 | 7.0 | 11.0 | 0.00 | 0.02 | 0.00 | 44 | 1029.2 |
| 20260901171518 | 68 | 230 | 7.0 | 12.0 | 0.00 | 0.02 | 0.00 | 45 | 1029.3 |
| 20260901170538 | 69 | 231 | 8.0 | 12.0 | 0.00 | 0.02 | 0.00 | 44 | 1029.3 |
| 20260901165518 | 68 | 235 | 7.0 | 13.0 | 0.00 | 0.02 | 0.00 | 46 | 1029.3 |
| 20260901164518 | 68 | 230 | 7.0 | 12.0 | 0.00 | 0.02 | 0.00 | 47 | 1029.4 |
| 20260901163518 | 67 | 212 | 9.0 | 14.0 | 0.00 | 0.02 | 0.00 | 49 | 1029.4 |
| 20260901162519 | 66 | 223 | 8.0 | 13.0 | 0.00 | 0.02 | 0.00 | 51 | 1029.4 |
| 20260901161519 | 66 | 229 | 7.0 | 12.0 | 0.00 | 0.02 | 0.00 | 52 | 1029.5 |
| 20260901160539 | 65 | 230 | 9.0 | 14.0 | 0.00 | 0.02 | 0.00 | 53 | 1029.4 |
| 20260901155539 | 64 | 234 | 7.0 | 11.0 | 0.00 | 0.02 | 0.00 | 55 | 1029.4 |
| 20260901154536 | 64 | 223 | 8.0 | 11.0 | 0.00 | 0.02 | 0.00 | 56 | 1029.3 |
| 20260901153530 | 62 | 199 | 8.0 | 10.0 | 0.00 | 0.02 | 0.00 | 60 | 1029.4 |
| 20260901152530 | 60 | 201 | 8.0 | 9.0 | 0.00 | 0.02 | 0.00 | 66 | 1029.5 |
| 20260901151530 | 0 | 200 | 8.0 | 8.0 | 0.00 | 0.02 | 0.00 | 1029.5 | |
| 20260901070107 | 58 | 190 | 9.0 | 9.0 | 0.00 | 0.02 | 0.00 | 65 | 1028.8 |
| 20260901065107 | 58 | 187 | 9.0 | 9.0 | 0.00 | 0.02 | 0.00 | 61 | 1028.7 |
| 20260901064107 | 57 | 199 | 7.0 | 8.0 | 0.00 | 0.02 | 0.00 | 66 | 1028.7 |
| 20260901063107 | 58 | 197 | 8.0 | 9.0 | 0.00 | 0.02 | 0.00 | 64 | 1028.7 |
| 20260901062108 | 58 | 185 | 6.0 | 7.0 | 0.00 | 0.02 | 0.00 | 66 | 1028.7 |
| 20260901061148 | 58 | 180 | 9.0 | 10.0 | 0.00 | 0.02 | 0.00 | 64 | 1028.8 |
| 20260901060148 | 59 | 174 | 9.0 | 11.0 | 0.00 | 0.02 | 0.00 | 62 | 1028.8 |
| 20260901055108 | 58 | 162 | 8.0 | 9.0 | 0.00 | 0.02 | 0.02 | 67 | 1028.7 |
| 20260901054108 | 58 | 179 | 7.0 | 7.0 | 0.00 | 0.02 | 0.02 | 66 | 1028.8 |
| 20260901053109 | 57 | 188 | 7.0 | 11.0 | 0.00 | 0.02 | 0.02 | 68 | 1028.9 |
| 20260901052109 | 56 | 167 | 7.0 | 8.0 | 0.00 | 0.02 | 0.02 | 74 | 1028.9 |
| 20260901051109 | 56 | 179 | 5.0 | 6.0 | 0.00 | 0.02 | 0.02 | 77 | 1028.8 |
| 20260901050109 | 56 | 177 | 5.0 | 6.0 | 0.00 | 0.02 | 0.02 | 78 | 1029.0 |
| 20260901045109 | 57 | 205 | 6.0 | 7.0 | 0.00 | 0.02 | 0.02 | 78 | 1029.1 |
| 20260901044017 | 57 | 213 | 5.0 | 7.0 | 0.00 | 0.02 | 0.02 | 77 | 1029.1 |
| 20260901043018 | 57 | 175 | 7.0 | 9.0 | 0.00 | 0.02 | 0.02 | 74 | 1029.1 |
| 20260901042018 | 57 | 168 | 6.0 | 7.0 | 0.00 | 0.02 | 0.02 | 76 | 1029.0 |
| 20260901041018 | 57 | 152 | 5.0 | 6.0 | 0.00 | 0.02 | 0.02 | 75 | 1028.9 |
| 20260901040018 | 57 | 146 | 4.0 | 6.0 | 0.00 | 0.02 | 0.02 | 78 | 1029.0 |
| 20260901035018 | 58 | 149 | 5.0 | 6.0 | 0.00 | 0.02 | 0.02 | 77 | 1029.0 |
| 20260901034019 | 58 | 153 | 4.0 | 5.0 | 0.00 | 0.02 | 0.02 | 77 | 1028.9 |
| 20260901033030 | 58 | 178 | 5.0 | 8.0 | 0.00 | 0.02 | 0.02 | 75 | 1028.8 |
| 20260901032028 | 57 | 205 | 3.0 | 4.0 | 0.00 | 0.02 | 0.02 | 75 | 1029.0 |
| 20260901031028 | 56 | 190 | 3.0 | 5.0 | 0.00 | 0.02 | 0.02 | 81 | 1029.1 |
| 20260901030019 | 55 | 204 | 4.0 | 7.0 | 0.00 | 0.02 | 0.02 | 85 | 1029.2 |
| 20260901025028 | 56 | 190 | 4.0 | 5.0 | 0.00 | 0.02 | 0.02 | 83 | 1029.1 |
| 20260901024028 | 57 | 353 | 2.0 | 5.0 | 0.00 | 0.02 | 0.02 | 81 | 1028.7 |
| 20260901023020 | 58 | 36 | 4.0 | 7.0 | 0.00 | 0.02 | 0.02 | 78 | 1028.7 |
| 20260901022020 | 59 | 25 | 6.0 | 9.0 | 0.02 | 0.02 | 0.02 | 77 | 1028.9 |
| 20260901021029 | 59 | 114 | 1.0 | 2.0 | 0.02 | 0.02 | 0.02 | 72 | 1028.8 |
| 20260901020049 | 59 | 182 | 2.0 | 4.0 | 0.02 | 0.02 | 0.02 | 76 | 1028.6 |
| 20260901015020 | 60 | 187 | 4.0 | 6.0 | 0.02 | 0.02 | 0.02 | 73 | 1028.3 |
| 20260901014020 | 61 | 191 | 6.0 | 9.0 | 0.02 | 0.02 | 0.02 | 69 | 1028.3 |
| 20260901013021 | 62 | 199 | 4.0 | 8.0 | 0.02 | 0.02 | 0.02 | 72 | 1028.4 |
| 20260901012030 | 63 | 197 | 3.0 | 4.0 | 0.00 | 0.00 | 0.00 | 62 | 1028.3 |
| 20260901011030 | 63 | 189 | 3.0 | 4.0 | 0.00 | 0.00 | 0.00 | 61 | 1028.2 |
| 20260901010030 | 63 | 292 | 3.0 | 5.0 | 0.00 | 0.00 | 0.00 | 61 | 1028.2 |
| 20260901005022 | 63 | 250 | 4.0 | 6.0 | 0.00 | 0.00 | 0.00 | 62 | 1028.0 |
| 20260901004022 | 64 | 215 | 7.0 | 10.0 | 0.00 | 0.00 | 0.00 | 58 | 1027.7 |
| 20260901003039 | 65 | 193 | 9.0 | 11.0 | 0.00 | 0.00 | 0.00 | 55 | 1027.4 |
| 20260901002019 | 65 | 187 | 10.0 | 14.0 | 0.00 | 0.00 | 0.00 | 54 | 1027.3 |
| 20260901001059 | 66 | 187 | 11.0 | 15.0 | 0.00 | 0.00 | 0.00 | 52 | 1027.3 |
| 20260901000017 | 67 | 213 | 10.0 | 12.0 | 0.00 | 0.00 | 0.00 | 53 | 1027.3 |
| 20260831235020 | 68 | 189 | 11.0 | 15.0 | 0.00 | 0.00 | 0.00 | 48 | 1027.3 |
| 20260831234020 | 68 | 193 | 11.0 | 15.0 | 0.00 | 0.00 | 0.00 | 48 | 1027.2 |
| 20260831233021 | 69 | 189 | 11.0 | 15.0 | 0.00 | 0.00 | 0.00 | 47 | 1027.1 |
| 20260831232017 | 69 | 185 | 9.0 | 13.0 | 0.00 | 0.00 | 0.00 | 47 | 1027.1 |
| 20260831231018 | 70 | 185 | 8.0 | 12.0 | 0.00 | 0.00 | 0.00 | 45 | 1027.1 |
| 20260831230041 | 70 | 175 | 10.0 | 14.0 | 0.00 | 0.00 | 0.00 | 45 | 1027.2 |